Regional Weather Roundup
Issued by NWS

Home | Current Version | Previous Version | Graphics & Text | Print | Product List | Glossary On
Versions: 1 2 3 4 5 6 7 8 9 10 11 12 13 14 15 16 17 18 19 20 21 22 23 24 25 26 27
000
ASUS45 KBOU 201807
RWRCO

WEATHER ROUNDUP FOR COLORADO
NATIONAL WEATHER SERVICE DENVER/BOULDER CO
1200 PM MDT SUN AUG 20 2017

NOTE: "FAIR" INDICATES FEW OR NO CLOUDS BELOW 12000 FEET WITH NO
SIGNIFICANT WEATHER AND/OR OBSTRUCTIONS TO VISIBILITY.

COZ001>005-013-030-031-201900-
...NORTHWEST COLORADO...

CITY           SKY/WX    TMP DP  RH WIND       PRES   REMARKS
CRAIG          FAIR      83  33  16 N6        30.19F
HAYDEN         FAIR      79  33  19 CALM      30.23F
MEEKER         FAIR      82  34  17 S5        30.21F
RABBIT EARS PA FAIR      63  34  34 W7        30.54F
STEAMBOAT SPGS FAIR      77  35  22 SE3       30.24F
WALDEN         FAIR      75  30  19 SW6       30.35F
$$

COZ006>008-011-201900-
...WEST CENTRAL VALLEYS...

CITY           SKY/WX    TMP DP  RH WIND       PRES   REMARKS
GRAND JUNCTION FAIR      84  39  20 SE5       30.09F
MONTROSE       FAIR      80  42  25 VRB5      30.17F
EAGLE          FAIR      76  35  22 CALM      30.25F
RIFLE          FAIR      82  38  20 VRB5      30.15F
DELTA          FAIR      84  35  17 CALM      30.13F
NUCLA          FAIR      82  32  16 NW3       30.20F
$$

COZ017>023-064>068-201900-
...SOUTHWEST COLORADO...

CITY           SKY/WX    TMP DP  RH WIND       PRES   REMARKS
DURANGO        FAIR      79  42  26 E6        30.22F
CORTEZ         FAIR      84  40  21 VRB3      30.16F
PAGOSA SPRINGS FAIR      77  31  18 CALM      30.29F
TELLURIDE      PTSUNNY   74  28  17 CALM      30.42S
WOLF CREEK PAS FAIR      59  32  36 N5        30.67F
$$

COZ009-010-012-014-032>034-037-058>063-201900-
...CENTRAL COLORADO...

CITY           SKY/WX    TMP DP  RH WIND       PRES   REMARKS
ASPEN          FAIR      80  31  16 N9        30.30F
BUENA VISTA    FAIR      74  32  21 SE6       30.32F
COPPER MTN     PTSUNNY   61  25  25 NW13G18   30.64F
BERTHOUD PASS  PTSUNNY   52  46  82 NE3       30.68S
COTTONWOOD PAS FAIR      73  21  14 E9        30.47F
GUNNISON       FAIR      69  37  30 CALM      30.33F
KREMMLING      FAIR      79  32  18 CALM      30.31F
LEADVILLE      FAIR      66  25  21 VRB5      30.45F
MONARCH PASS   FAIR      59  28  31 SW8G18    30.74S
SALIDA         FAIR      75  38  26 S5        30.37F
SUNLIGHT       FAIR      61  30  31 CALM      30.58S
WILKERSON PASS FAIR      61  28  29 SW5       30.61F
$$

COZ069>075-201900-
...SAN LUIS VALLEY/SANGRE DE CRISTO MOUNTAINS...

CITY           SKY/WX    TMP DP  RH WIND       PRES   REMARKS
ALAMOSA        FAIR      72  39  30 CALM      30.30F
DEL NORTE      FAIR      72  44  37 E5        30.34F
LA VETA PASS   NOT AVBL
SAGUACHE       FAIR      73  41  31 SE6       30.33F
$$

COZ035-036-038>040-201900-
...NORTHERN COLORADO FRONT RANGE...

CITY           SKY/WX    TMP DP  RH WIND       PRES   REMARKS
DENVER INTL AP FAIR      81  37  20 NE17      30.14S
DMNS CITY PARK   N/A     85  29  13 NE13      30.12S
AURORA         NOT AVBL
FRONT RANGE AP FAIR      81  36  19 NE14G22   30.16S
ERIE MUNI ARPT FAIR      85  32  14 E13       30.16S
BOULDER MUN AP FAIR      88  36  15 E8        30.12F
CENTENNIAL     FAIR      84  28  13 NE7       30.16F
BROOMFIELD     PTSUNNY   84  32  15 E7        30.16S
FORT COLLINS   FAIR      83  47  28 E14       30.11S
LONGMONT       FAIR      86  43  22 E13       30.13R
$$

COZ041-046-047-076>085-087-088-201900-
...PIKES PEAK/PALMER DIVIDE AND SOUTHERN FOOTHILLS...

CITY           SKY/WX    TMP DP  RH WIND       PRES   REMARKS
COLO. SPRINGS  PTSUNNY   86  40  19 E9        30.18S
A. F. ACADEMY  FAIR      81  38  21 N8        30.20S
SCHRIEVER AFB  FAIR      82  38  20 N13G18    30.19S
CHEYENNE MTN   FAIR      80  38  22 N3        30.19S
ELLICOTT       NOT AVBL
FALCON         FAIR      81  35  18 NE7       30.25S
FORT CARSON    FAIR      83  51  33 SE9       30.15S
LIMON          FAIR      85  44  23 N10       30.12F
MONUMENT HILL  FAIR      77  37  24 NE8G18    30.27S
CANON CITY     SUNNY     90  45  20 E3        30.11S
WALSENBURG     FAIR      88  43  20 N3        30.16F
TRINIDAD       FAIR      87  41  19 N6        30.13F
$$

COZ042>045-048>051-090-091-201900-
...NORTHEAST COLORADO...

CITY           SKY/WX    TMP DP  RH WIND       PRES   REMARKS
GREELEY ARPT   FAIR      78  50  37 E10       30.11F
AKRON          FAIR      83  51  33 N9        30.08S
BURLINGTON     FAIR      87  54  32 E7        30.03S
WRAY           NOT AVBL
YUMA           FAIR      81  43  26 NW9       30.03F
STERLING       FAIR      79  61  53 NE6       30.04S
HOLYOKE        FAIR      86  63  45 N9        30.01S
FORT MORGAN    FAIR      81  43  26 NE9       30.10S
$$

COZ086-089-092>099-201900-
...SOUTHEAST COLORADO...

CITY           SKY/WX    TMP DP  RH WIND       PRES   REMARKS
PUEBLO         FAIR      89  46  22 SE5       30.05F
LA JUNTA       FAIR      86  55  34 CALM      30.02F
LAMAR          FAIR      86  56  35 CALM      29.98S
SPRINGFIELD      N/A     85  57  38 SW9       30.03F
$$




USA.gov is the U.S. government's official web portal to all federal, state and local government web resources and services.